Theta_e
320 320 317 314 311 306 303 301 299 298 297 296 296 293 293 293 293 292 291 290 291 292
319 317 314 311 307 303 300 298 296 295 294 294 294 292 291 290 290 290 290 290 290 290
316 313 311 305 301 298 296 295 294 293 293 293 293 293 291 289 290 289 290 290 290 290
304 303 302 299 296 295 294 294 293 292 293 292 291 291 290 289 289 288 288 289 289 289
298 297 296 294 293 293 293 292 292 292 292 291 290 290 289 288 287 287 287 287 288 288
296 295 293 293 292 293 292 291 291 291 291 291 290 289 289 287 287 287 287 287 287 287
293 292 291 291 291 291 291 290 290 290 290 290 289 290 288 287 286 286 287 287 287 287
291 291 290 290 290 290 289 289 288 288 288 290 290 290 287 287 286 286 285 286 286 287
289 289 288 288 288 288 288 287 286 286 286 287 289 293 293 289 286 286 285 284 285 286
288 287 287 287 286 285 285 285 284 283 283 283 286 292 292 291 285 284 284 284 284 285
286 285 285 284 284 283 283 282 281 282 282 283 286 291 290 288 283 282 283 283 283 283
284 283 283 282 281 280 281 281 281 282 282 281 282 288 288 285 281 282 281 282 283 282
283 282 280 280 280 280 281 281 282 281 282 284 280 286 286 285 281 280 280 281 281 285
280 280 280 279 279 279 280 280 280 280 280 280 282 281 285 286 281 281 280 280 281 281
Wind_Speed
13 9 8 10 9 5 4 5 5 6 6 6 5 6 6 4 4 5 5 7 5 3
9 10 10 11 8 7 7 6 7 7 7 7 6 6 6 5 5 5 5 5 5 3
10 9 10 10 11 10 9 9 9 8 7 6 7 5 6 5 5 6 4 3 5 3
10 10 10 10 10 11 11 10 10 8 9 7 7 4 7 5 6 6 5 4 5 5
11 12 11 11 11 10 11 8 10 7 10 7 6 6 6 5 6 6 5 5 5 5
11 11 13 13 12 11 8 10 7 7 9 8 5 6 5 5 6 5 5 4 5 5
12 12 12 11 13 11 8 8 9 7 7 7 7 5 5 5 5 4 4 4 4 4
11 12 12 11 12 10 8 8 8 8 6 6 5 4 5 5 4 4 4 4 4 4
12 13 10 12 10 10 9 9 7 7 7 5 3 8 7 6 4 4 4 5 5 5
12 12 11 11 11 10 8 8 8 6 6 6 4 7 8 10 4 4 4 5 5 6
13 12 11 10 10 9 7 7 6 6 6 6 4 8 9 9 4 3 4 4 5 5
12 12 11 11 9 6 7 6 5 5 6 6 5 8 8 5 4 3 4 4 5 6
11 12 11 9 8 4 5 6 5 6 5 9 5 6 5 5 1 3 3 4 5 12
9 10 9 7 6 6 7 7 6 6 5 5 4 3 6 7 1 3 3 4 5 6
Wind_Direction
167 172 167 165 157 147 131 130 126 106 93 88 88 94 94 86 82 78 68 64 60 72
155 152 157 145 129 127 121 120 107 102 103 98 88 81 88 92 82 81 70 69 64 72
147 140 137 135 132 131 122 119 115 108 98 88 94 83 80 80 75 77 54 58 60 44
124 124 125 127 130 132 127 128 119 118 109 102 88 85 85 77 77 74 66 39 41 29
118 122 118 118 117 117 113 96 109 110 106 96 100 76 90 80 75 69 56 35 29 14
120 123 124 119 109 105 105 111 91 111 106 118 97 95 81 87 75 66 57 33 17 349
123 120 118 114 115 115 126 116 112 105 112 115 103 121 104 87 79 58 44 23 6 335
116 119 111 114 112 112 118 109 106 111 119 106 139 123 107 103 89 60 30 1 338 322
126 113 122 113 108 116 111 106 120 103 107 117 91 90 89 108 75 42 17 345 336 331
125 122 119 120 121 122 122 111 105 109 108 97 74 84 70 73 53 32 2 341 325 329
127 121 120 119 118 116 115 114 112 105 102 96 65 72 64 56 38 16 349 332 328 316
127 125 124 124 126 117 114 109 103 105 101 95 55 62 47 49 21 4 339 329 325 320
128 128 126 126 122 109 105 108 106 95 83 88 69 45 40 46 36 349 324 312 297 313
116 118 120 112 111 113 111 108 103 102 89 80 80 29 25 10 28 309 322 316 315 310